Regional Weather Roundup
Issued by NWS

Home | Current Version | Previous Version | Graphics & Text | Print | Product List | Glossary On
Versions: 1 2 3 4 5 6 7 8 9 10 11 12 13 14 15 16 17 18 19 20 21 22 23 24 25 26 27
000
ASUS45 KBOU 250607
RWRCO

WEATHER ROUNDUP FOR COLORADO
NATIONAL WEATHER SERVICE DENVER/BOULDER CO
1200 AM MDT MON JUL 25 2016

NOTE: "FAIR" INDICATES FEW OR NO CLOUDS BELOW 12000 FEET WITH NO
SIGNIFICANT WEATHER AND/OR OBSTRUCTIONS TO VISIBILITY.

COZ001>005-013-030-031-250700-
...NORTHWEST COLORADO...

CITY           SKY/WX    TMP DP  RH WIND       PRES   REMARKS
CRAIG          FAIR      59  44  57 CALM      30.22S
HAYDEN         FAIR      63  39  42 E10       30.26R
MEEKER         FAIR      64  41  42 SE10G17   30.25R
MOUNT WERNER   NOT AVBL
STEAMBOAT SPGS FAIR      59  42  52 CALM      30.29S
WALDEN         FAIR      50  36  57 E5        30.41S
$$

COZ006>008-011-250700-
...WEST CENTRAL VALLEYS...

CITY           SKY/WX    TMP DP  RH WIND       PRES   REMARKS
GRAND JUNCTION FAIR      82  38  20 E15       30.06R
MONTROSE       FAIR      73  41  31 SE14      30.19S
EAGLE          FAIR      61  43  51 E6        30.31R
RIFLE          FAIR      69  38  32 S5        30.16R
DELTA          FAIR      74  39  27 NE6       30.14S
NUCLA          FAIR     N/A N/A N/A E9        30.25R
$$

COZ017>023-064>068-250700-
...SOUTHWEST COLORADO...

CITY           SKY/WX    TMP DP  RH WIND       PRES   REMARKS
DURANGO        FAIR      67  47  48 SE3       30.32R
CORTEZ         FAIR      75  44  33 NE7       30.22S
PAGOSA SPRINGS FAIR      64  40  41 CALM      30.40S
TELLURIDE      FAIR      56  42  58 SE8       30.51S
WOLF CREEK PAS FAIR      50  37  62 SW15      30.74S
$$

COZ009-010-012-014-032>034-037-058>063-250700-
...CENTRAL COLORADO...

CITY           SKY/WX    TMP DP  RH WIND       PRES   REMARKS
ASPEN          FAIR      60  40  47 SW9       30.36F
BUENA VISTA    FAIR      59  49  68 CALM      30.44S
COPPER MTN     FAIR      57  32  38 SW12      30.73S
BERTHOUD PASS  FAIR      45  32  61 E7        30.77S
COTTONWOOD PAS FAIR      59  43  55 CALM      30.58S
GUNNISON       NOT AVBL
KREMMLING      FAIR      52  46  82 CALM      30.39S
LEADVILLE      FAIR      49  34  56 NE3       30.56S
MONARCH PASS   FAIR      46  41  81 NE22      30.82R
SALIDA         FAIR      68  48  48 SE9       30.48R
SUNLIGHT       FAIR      61  32  33 CALM      30.63S
WILKERSON PASS FAIR      50  37  62 S8        30.71F
$$

COZ069>075-250700-
...SAN LUIS VALLEY/SANGRE DE CRISTO MOUNTAINS...

CITY           SKY/WX    TMP DP  RH WIND       PRES   REMARKS
ALAMOSA        FAIR      60  46  59 SE8       30.34S
LA VETA PASS   MOCLDY    52  45  76 N6        30.60R
SAGUACHE       MOCLDY    63  43  48 W5        30.39R
$$

COZ035-036-038>040-250700-
...NORTHERN COLORADO FRONT RANGE...

CITY           SKY/WX    TMP DP  RH WIND       PRES   REMARKS
DENVER INTL AP FAIR      62  55  77 SE15      30.29R
DMNS CITY PARK   N/A     65  55  68 SE3G10    30.27F
AURORA         PTCLDY    62  56  80 SE8       30.30R
FRONT RANGE AP NOT AVBL
ERIE MUNI ARPT FAIR      65  55  69 CALM      30.28F
BOULDER MUN AP FAIR      63  57  82 NW5       30.29F
CENTENNIAL     FAIR      63  53  70 S13       30.31R
BROOMFIELD     FAIR      64  54  68 NE5       30.31F
LONGMONT       FAIR      65  58  76 CALM      30.31S
$$

COZ041-046-047-076>085-087-088-250700-
...PIKES PEAK/PALMER DIVIDE AND SOUTHERN FOOTHILLS...

CITY           SKY/WX    TMP DP  RH WIND       PRES   REMARKS
COLO. SPRINGS  MOCLDY    64  53  67 NE10      30.35R
A. F. ACADEMY  FAIR      62  51  68 SE6       30.35S
SCHRIEVER AFB  NOT AVBL
ELLICOTT       FAIR     N/A N/A N/A E16       30.32F
FALCON         NOT AVBL
FORT CARSON    MOCLDY    64  55  74 E1        30.32
LIMON          FAIR      59  55  87 SE7       30.29S
MONUMENT HILL  FAIR      54  52  94 SE8       30.40S
TRINIDAD       NOT AVBL
$$

COZ042>045-048>051-090-091-250700-
...NORTHEAST COLORADO...

CITY           SKY/WX    TMP DP  RH WIND       PRES   REMARKS
GREELEY ARPT   FAIR      63  55  77 S3        30.29S
AKRON          FAIR      62  53  72 SE15      30.24S
BURLINGTON     FAIR      64  57  78 E12       30.21F
WRAY           FAIR      68  59  73 S13G22    30.16F
STERLING       FAIR      64  54  68 S10G17    30.18S
HOLYOKE        FAIR      64  54  68 W15       30.19R
FORT MORGAN    FAIR      60  53  77 S6        30.24F
$$

COZ086-089-092>099-250700-
...SOUTHEAST COLORADO...

CITY           SKY/WX    TMP DP  RH WIND       PRES   REMARKS
PUEBLO         FAIR      71  56  58 E13       30.25R
LA JUNTA       FAIR      67  61  81 E7        30.23R
LAMAR          FAIR      69  60  73 NE14      30.15F
SPRINGFIELD      N/A     70  59  68 E12       30.23R
$$




USA.gov is the U.S. government's official web portal to all federal, state and local government web resources and services.